EW6167 Weather Reports


time (UTC)temp
C
wind
direction
speed
KPH
gust
KPH
rain 1hr
cm
rain 24hr
cm
rain mn
cm
humidity
%
barometer
mb
20260507105601 11 340 4.8 0.0 0.00 0.00 0.00 52 1010.2
20260507105013 10 300 4.8 0.0 0.00 0.00 0.00 53 1010.1
20260507104537 10 300 4.8 0.0 0.00 0.00 0.00 53 1010.2
20260507104053 11 300 4.8 0.0 0.00 0.00 0.00 52 1010.2
20260507103506 11 300 6.4 0.0 0.00 0.00 0.00 51 1010.0
20260507103030 11 288 9.7 0.0 0.00 0.00 0.00 51 1010.0
20260507102544 11 282 9.7 0.0 0.00 0.00 0.00 51 1010.0
20260507102104 11 309 9.7 0.0 0.00 0.00 0.00 51 1010.1
20260507101513 11 297 8.0 0.0 0.00 0.00 0.00 51 1010.1
20260507101029 11 306 6.4 0.0 0.00 0.00 0.00 51 1010.2
20260507100547 11 305 4.8 0.0 0.00 0.00 0.00 51 1010.1
20260507095512 11 314 1.6 0.0 0.00 0.00 0.00 51 1010.3
20260507095027 11 314 1.6 0.0 0.00 0.00 0.00 51 1010.3
20260507094546 11 355 1.6 0.0 0.00 0.00 0.00 51 1010.4
20260507094003 11 355 4.8 0.0 0.00 0.00 0.00 51 1010.6
20260507093522 11 355 4.8 0.0 0.00 0.00 0.00 51 1010.6
20260507093046 11 44 4.8 0.0 0.00 0.00 0.00 51 1010.6
20260507092554 11 44 4.8 0.0 0.00 0.00 0.00 51 1010.5
20260507092010 11 317 3.2 0.0 0.00 0.00 0.00 52 1010.6
20260507091529 10 82 3.2 0.0 0.00 0.00 0.00 53 1010.5
20260507091050 10 232 1.6 0.0 0.00 0.00 0.00 53 1010.5
20260507090604 11 233 3.2 0.0 0.00 0.00 0.00 52 1010.5
20260507090013 11 233 3.2 0.0 0.00 0.00 0.00 50 1010.3
20260507085530 11 231 3.2 0.0 0.00 0.00 0.00 49 1010.4
20260507085050 11 231 3.2 0.0 0.00 0.00 0.00 50 1010.3
20260507084502 11 233 1.6 0.0 0.00 0.00 0.00 49 1010.3
20260507084018 11 233 1.6 0.0 0.00 0.00 0.00 49 1010.4
20260507083538 11 233 1.6 0.0 0.00 0.00 0.00 49 1010.5
20260507083054 11 233 3.2 0.0 0.00 0.00 0.00 50 1010.5
20260507082505 11 185 3.2 0.0 0.00 0.00 0.00 50 1010.5
20260507082023 11 198 3.2 0.0 0.00 0.00 0.00 50 1010.6
20260507081535 11 225 4.8 0.0 0.00 0.00 0.00 50 1010.6
20260507081048 11 273 4.8 0.0 0.00 0.00 0.00 50 1010.7
20260507080608 11 360 4.8 0.0 0.00 0.00 0.00 50 1010.7
20260507080020 11 248 6.4 0.0 0.00 0.00 0.00 50 1010.8
20260507075536 11 244 6.4 0.0 0.00 0.00 0.00 49 1010.8
20260507075059 11 207 6.4 0.0 0.00 0.00 0.00 49 1010.8
20260507074507 11 212 4.8 0.0 0.00 0.00 0.00 49 1010.9
20260507074026 11 221 4.8 0.0 0.00 0.00 0.00 50 1010.9
20260507073539 11 221 6.4 0.0 0.00 0.00 0.00 50 1010.9
20260507073056 11 221 6.4 0.0 0.00 0.00 0.00 51 1010.9
20260507072513 11 221 6.4 0.0 0.00 0.00 0.00 52 1011.0
20260507072028 10 130 6.4 0.0 0.00 0.00 0.00 52 1011.0
20260507071601 10 150 8.0 0.0 0.00 0.00 0.00 52 1011.2
20260507071102 10 148 8.0 0.0 0.00 0.00 0.00 52 1011.2
20260507070514 10 127 9.7 0.0 0.00 0.00 0.00 51 1011.2
20260507070026 10 170 8.0 0.0 0.00 0.00 0.00 51 1011.4
20260507065548 10 157 8.0 0.0 0.00 0.00 0.00 51 1011.4
20260507065002 10 165 4.8 0.0 0.00 0.00 0.00 53 1011.4
20260507064519 10 194 3.2 0.0 0.00 0.00 0.00 52 1011.6
20260507064037 10 194 3.2 0.0 0.00 0.00 0.00 52 1011.5
20260507063556 10 138 3.2 0.0 0.00 0.00 0.00 52 1011.4
20260507063006 10 183 6.4 0.0 0.00 0.00 0.00 52 1011.6
20260507062528 9 182 8.0 0.0 0.00 0.00 0.00 54 1011.6
20260507062044 9 188 9.7 0.0 0.00 0.00 0.00 54 1011.7
20260507061505 9 140 9.7 0.0 0.00 0.00 0.00 54 1011.5
20260507061019 10 140 8.0 0.0 0.00 0.00 0.00 54 1011.5
20260507060532 10 134 4.8 0.0 0.00 0.00 0.00 51 1011.5
20260507060047 10 188 3.2 0.0 0.00 0.00 0.00 50 1011.5
20260507055603 10 218 4.8 0.0 0.00 0.00 0.00 50 1011.6
20260507055015 10 218 6.4 0.0 0.00 0.00 0.00 50 1011.7
20260507054531 11 227 6.4 0.0 0.00 0.00 0.00 49 1011.8
20260507054046 11 247 6.4 0.0 0.00 0.00 0.00 47 1011.8
20260507053501 11 229 8.0 0.0 0.00 0.00 0.00 47 1011.9
20260507053021 10 229 6.4 0.0 0.00 0.00 0.00 48 1011.8
20260507052538 10 97 4.8 0.0 0.00 0.00 0.00 48 1011.8
20260507052057 11 50 3.2 0.0 0.00 0.00 0.00 48 1011.8
20260507051519 10 50 1.6 0.0 0.00 0.00 0.00 48 1011.8
20260507051025 10 50 3.2 0.0 0.00 0.00 0.00 49 1011.8
20260507050543 10 50 3.2 0.0 0.00 0.00 0.00 49 1011.9
20260507050104 10 50 3.2 0.0 0.00 0.00 0.00 49 1011.9
20260507045511 10 50 6.4 0.0 0.00 0.00 0.00 49 1011.9
20260507045028 11 178 8.0 0.0 0.00 0.00 0.00 49 1012.2
20260507044549 11 195 9.7 0.0 0.00 0.00 0.00 48 1011.9
20260507044104 11 205 8.0 0.0 0.00 0.00 0.00 48 1012.0
20260507043513 11 204 6.4 0.0 0.00 0.00 0.00 48 1012.1
20260507043030 10 211 6.4 0.0 0.00 0.00 0.00 50 1012.1
20260507042545 10 211 6.4 0.0 0.00 0.00 0.00 51 1012.1
20260507042103 10 211 4.8 0.0 0.00 0.00 0.00 51 1012.1
20260507041510 11 215 4.8 0.0 0.00 0.00 0.00 51 1012.1
20260507041026 11 215 6.4 0.0 0.00 0.00 0.00 49 1012.2
20260507040544 11 215 8.0 0.0 0.00 0.00 0.00 49 1012.2
20260507040118 11 215 9.7 0.0 0.00 0.00 0.00 49 1012.2
20260507035512 12 215 9.7 0.0 0.00 0.00 0.00 47 1012.1
20260507035029 12 219 8.0 0.0 0.00 0.00 0.00 46 1012.1
20260507034547 11 315 6.4 0.0 0.00 0.00 0.00 46 1012.1
20260507034102 11 315 4.8 0.0 0.00 0.00 0.00 48 1012.1
20260507033513 11 315 4.8 0.0 0.00 0.00 0.00 52 1012.1
20260507033039 11 315 4.8 0.0 0.00 0.00 0.00 52 1012.1
20260507032547 11 315 4.8 0.0 0.00 0.00 0.00 51 1012.1
20260507032001 12 315 3.2 0.0 0.00 0.00 0.00 48 1012.0
20260507031521 12 315 4.8 0.0 0.00 0.00 0.00 46 1012.0
20260507031040 12 315 6.4 0.0 0.00 0.00 0.00 44 1012.0
20260507030552 12 315 6.4 0.0 0.00 0.00 0.00 45 1012.1
20260507030010 12 315 4.8 0.0 0.00 0.00 0.00 45 1012.1
20260507025529 12 315 4.8 0.0 0.00 0.00 0.00 46 1012.2
20260507025047 12 315 4.8 0.0 0.00 0.00 0.00 46 1012.1
20260507024606 12 320 4.8 0.0 0.00 0.00 0.00 44 1012.2
20260507024015 12 320 4.8 0.0 0.00 0.00 0.00 42 1012.5
20260507023531 13 320 3.2 0.0 0.00 0.00 0.00 42 1012.5
20260507023050 13 320 3.2 0.0 0.00 0.00 0.00 41 1012.4
20260507022604 14 320 3.2 0.0 0.00 0.00 0.00 39 1012.3
20260507022013 14 320 1.6 0.0 0.00 0.00 0.00 36 1012.4
20260507021527 14 320 1.6 0.0 0.00 0.00 0.00 35 1012.5
20260507021041 15 320 1.6 0.0 0.00 0.00 0.00 35 1012.5
20260507020604 15 320 3.2 0.0 0.00 0.00 0.00 34 1012.6
20260507020008 15 320 3.2 0.0 0.00 0.00 0.00 34 1012.6
20260507015524 15 320 3.2 0.0 0.00 0.00 0.00 34 1012.6
20260507015042 15 320 1.6 0.0 0.00 0.00 0.00 34 1012.6
20260507014605 15 320 1.6 0.0 0.00 0.00 0.00 33 1012.7
20260507014011 15 320 4.8 0.0 0.00 0.00 0.00 33 1012.6
20260507013522 15 320 6.4 0.0 0.00 0.00 0.00 33 1012.7
20260507013039 15 320 8.0 0.0 0.00 0.00 0.00 32 1012.7
20260507012552 16 320 9.7 0.0 0.00 0.00 0.00 31 1012.8
20260507012004 16 323 12.9 0.0 0.00 0.00 0.00 30 1012.8
20260507011517 16 321 14.5 0.0 0.00 0.00 0.00 29 1012.9
20260507011032 17 316 16.1 0.0 0.00 0.00 0.00 28 1012.9
20260507010551 17 302 19.3 0.0 0.00 0.00 0.00 28 1012.9
20260507010003 17 301 19.3 0.0 0.00 0.00 0.00 28 1013.1
20260507005516 17 331 16.1 0.0 0.00 0.00 0.00 28 1013.1
20260507005033 17 304 14.5 0.0 0.00 0.00 0.00 28 1013.0
20260507004559 16 322 12.9 0.0 0.00 0.00 0.00 29 1013.2
20260507004103 16 299 12.9 0.0 0.00 0.00 0.00 28 1013.2
20260507003512 16 319 11.3 0.0 0.00 0.00 0.00 28 1013.2
20260507003030 17 313 11.3 0.0 0.00 0.00 0.00 29 1013.3
20260507002550 17 328 11.3 0.0 0.00 0.00 0.00 28 1013.3
20260507002006 17 303 6.4 0.0 0.00 0.00 0.00 29 1013.2
20260507001519 16 11 4.8 0.0 0.00 0.00 0.00 28 1013.3
20260507001033 16 11 6.4 0.0 0.00 0.00 0.00 28 1013.3
20260507000548 16 342 9.7 0.0 0.00 0.00 0.00 28 1013.4
20260507000104 17 342 14.5 0.0 0.00 0.00 0.00 29 1013.4
20260506235511 17 313 16.1 0.0 0.00 0.00 0.00 28 1013.3
20260506235022 17 360 12.9 0.0 0.00 0.00 0.00 28 1013.3
20260506234538 17 278 12.9 0.0 0.00 0.00 0.00 28 1013.4
20260506234051 17 277 9.7 0.0 0.00 0.00 0.00 28 1013.6
20260506233506 17 355 9.7 0.0 0.00 0.00 0.00 28 1013.8
20260506233019 17 290 12.9 0.0 0.00 0.00 0.00 29 1013.9
20260506232531 16 267 16.1 0.0 0.00 0.00 0.00 28 1013.9
20260506232044 16 269 14.5 0.0 0.00 0.00 0.00 29 1014.1
20260506231602 16 295 11.3 0.0 0.00 0.00 0.00 29 1014.1
20260506231008 16 263 9.7 0.0 0.00 0.00 0.00 31 1014.3
20260506230517 16 355 11.3 0.0 0.00 0.00 0.00 31 1014.3
20260506230037 15 12 12.9 0.0 0.00 0.00 0.00 31 1014.3
20260506225551 15 319 12.9 0.0 0.00 0.00 0.00 31 1014.3
20260506225003 15 331 12.9 0.0 0.00 0.00 0.00 31 1014.4
20260506224520 15 290 9.7 0.0 0.00 0.00 0.00 30 1014.5
20260506224039 15 290 9.7 0.0 0.00 0.00 0.00 30 1014.5
20260506223555 15 292 11.3 0.0 0.00 0.00 0.00 31 1014.5
20260506223110 15 296 14.5 0.0 0.00 0.00 0.00 30 1014.7
20260506222515 15 255 16.1 0.0 0.00 0.00 0.00 29 1014.7
20260506222034 16 288 16.1 0.0 0.00 0.00 0.00 29 1014.7
20260506221546 15 279 16.1 0.0 0.00 0.00 0.00 30 1014.9
20260506221101 15 315 19.3 0.0 0.00 0.00 0.00 30 1015.1
20260506220516 15 284 22.5 0.0 0.00 0.00 0.00 29 1015.2
20260506220038 15 360 16.1 0.0 0.00 0.00 0.00 30 1015.3
20260506215548 15 324 12.9 0.0 0.00 0.00 0.00 30 1015.3
20260506215058 15 311 14.5 0.0 0.00 0.00 0.00 30 1015.4
20260506214510 15 325 17.7 0.0 0.00 0.00 0.00 29 1015.5
20260506214025 15 286 19.3 0.0 0.00 0.00 0.00 29 1015.6
20260506213543 15 277 20.9 0.0 0.00 0.00 0.00 30 1015.7
20260506213056 15 281 20.9 0.0 0.00 0.00 0.00 30 1015.6
20260506212507 15 340 20.9 0.0 0.00 0.00 0.00 31 1015.6
20260506212026 15 314 22.5 0.0 0.00 0.00 0.00 30 1015.6
20260506211541 15 314 20.9 0.0 0.00 0.00 0.00 29 1015.7
20260506211059 15 336 22.5 0.0 0.00 0.00 0.00 30 1015.8
20260506210513 15 281 24.1 0.0 0.00 0.00 0.00 30 1016.0
20260506210027 15 327 22.5 0.0 0.00 0.00 0.00 30 1016.1
20260506205542 15 334 22.5 0.0 0.00 0.00 0.00 30 1016.2
20260506205101 14 327 19.3 0.0 0.00 0.00 0.00 30 1016.2
20260506204516 14 331 12.9 0.0 0.00 0.00 0.00 32 1016.2
20260506204032 14 25 11.3 0.0 0.00 0.00 0.00 32 1016.4
20260506203548 14 26 8.0 0.0 0.00 0.00 0.00 33 1016.5
20260506203059 13 69 8.0 0.0 0.00 0.00 0.00 33 1016.6
20260506202510 13 74 9.7 0.0 0.00 0.00 0.00 33 1016.7
20260506202026 13 51 6.4 0.0 0.00 0.00 0.00 32 1016.7
20260506201542 13 23 6.4 0.0 0.00 0.00 0.00 31 1016.6
20260506201057 13 360 6.4 0.0 0.00 0.00 0.00 32 1016.6
20260506200510 13 171 6.4 0.0 0.00 0.00 0.00 32 1016.8
20260506200027 12 318 8.0 0.0 0.00 0.00 0.00 32 1016.8
20260506195539 12 300 8.0 0.0 0.00 0.00 0.00 31 1016.8
20260506195057 12 260 6.4 0.0 0.00 0.00 0.00 31 1016.9
20260506194507 12 44 6.4 0.0 0.00 0.00 0.00 32 1017.1
20260506194022 12 297 6.4 0.0 0.00 0.00 0.00 32 1017.2
20260506193538 12 305 6.4 0.0 0.00 0.00 0.00 32 1017.2
20260506193055 12 57 8.0 0.0 0.00 0.00 0.00 33 1017.3
20260506192501 12 87 8.0 0.0 0.00 0.00 0.00 33 1017.4
20260506192019 12 320 9.7 0.0 0.00 0.00 0.00 32 1017.4
20260506191545 12 15 8.0 0.0 0.00 0.00 0.00 32 1017.6
20260506191107 12 50 6.4 0.0 0.00 0.00 0.00 33 1017.5
20260506190521 12 265 6.4 0.0 0.00 0.00 0.00 31 1017.7
20260506190034 11 84 8.0 0.0 0.00 0.00 0.00 32 1017.8
20260506185550 11 34 8.0 0.0 0.00 0.00 0.00 32 1017.9
20260506185104 11 42 8.0 0.0 0.00 0.00 0.00 31 1017.9
20260506184518 11 45 6.4 0.0 0.00 0.00 0.00 32 1018.2
20260506184032 11 117 6.4 0.0 0.00 0.00 0.00 32 1018.3
20260506183548 11 70 6.4 0.0 0.00 0.00 0.00 32 1018.3
20260506183125 11 124 4.8 0.0 0.00 0.00 0.00 33 1018.4
20260506182512 10 64 4.8 0.0 0.00 0.00 0.00 34 1018.5
20260506182026 10 324 6.4 0.0 0.00 0.00 0.00 32 1018.4
20260506181549 10 340 6.4 0.0 0.00 0.00 0.00 31 1018.6
20260506181100 10 18 6.4 0.0 0.00 0.00 0.00 32 1018.6
20260506180510 10 9 6.4 0.0 0.00 0.00 0.00 31 1018.7
20260506180026 10 52 4.8 0.0 0.00 0.00 0.00 31 1018.8
20260506175542 10 55 4.8 0.0 0.00 0.00 0.00 31 1018.8
20260506175103 9 79 4.8 0.0 0.00 0.00 0.00 31 1018.9
20260506174511 9 52 4.8 0.0 0.00 0.00 0.00 31 1018.9
20260506174028 9 111 4.8 0.0 0.00 0.00 0.00 31 1019.0
20260506173549 8 55 4.8 0.0 0.00 0.00 0.00 29 1019.0
20260506173140 8 94 4.8 0.0 0.00 0.00 0.00 29 1019.0
20260506172514 8 84 4.8 0.0 0.00 0.00 0.00 30 1018.9
20260506172028 8 101 4.8 0.0 0.00 0.00 0.00 30 1019.0
20260506171547 8 91 6.4 0.0 0.00 0.00 0.00 31 1019.1
20260506171004 8 70 6.4 0.0 0.00 0.00 0.00 29 1019.2
20260506170523 7 89 4.8 0.0 0.00 0.00 0.00 28 1019.3
20260506170034 7 285 6.4 0.0 0.00 0.00 0.00 28 1019.1
20260506165548 7 131 6.4 0.0 0.00 0.00 0.00 28 1019.1
20260506165107 7 148 8.0 0.0 0.00 0.00 0.00 31 1019.3
20260506164519 7 90 8.0 0.0 0.00 0.00 0.00 32 1019.3
20260506164033 7 80 8.0 0.0 0.00 0.00 0.00 33 1019.4
20260506163552 7 88 8.0 0.0 0.00 0.00 0.00 34 1019.5
20260506163007 6 198 8.0 0.0 0.00 0.00 0.00 35 1019.4
20260506162523 6 105 9.7 0.0 0.00 0.00 0.00 37 1019.5
20260506162043 6 168 9.7 0.0 0.00 0.00 0.00 41 1019.6
20260506161602 5 186 9.7 0.0 0.00 0.00 0.00 41 1019.6
20260506161016 5 206 9.7 0.0 0.00 0.00 0.00 41 1019.8
20260506160531 5 137 9.7 0.0 0.00 0.00 0.00 41 1019.8
20260506160050 5 180 11.3 0.0 0.00 0.00 0.00 41 1019.8
20260506155502 4 209 11.3 0.0 0.00 0.00 0.00 42 1019.8
20260506155021 4 171 11.3 0.0 0.00 0.00 0.00 43 1019.9
20260506154536 3 187 11.3 0.0 0.00 0.00 0.00 43 1019.9
20260506154056 3 179 12.9 0.0 0.00 0.00 0.00 43 1019.9
20260506153505 3 187 12.9 0.0 0.00 0.00 0.00 43 1019.9
20260506153023 3 211 12.9 0.0 0.00 0.00 0.00 46 1020.0
20260506152539 3 184 14.5 0.0 0.00 0.00 0.00 46 1020.0
20260506152055 3 200 14.5 0.0 0.00 0.00 0.00 45 1020.1
20260506151507 3 194 14.5 0.0 0.00 0.00 0.00 46 1020.2
20260506151025 2 173 16.1 0.0 0.00 0.00 0.00 48 1020.2
20260506150540 2 175 16.1 0.0 0.00 0.00 0.00 50 1020.2
20260506150058 2 155 16.1 0.0 0.00 0.00 0.00 53 1020.2
20260506145505 2 163 16.1 0.0 0.00 0.00 0.00 54 1020.2
20260506145022 2 198 16.1 0.0 0.00 0.00 0.00 56 1020.3
20260506144549 1 170 14.5 0.0 0.00 0.00 0.00 57 1020.4
20260506144054 1 201 14.5 0.0 0.00 0.00 0.00 59 1020.5
20260506143505 1 195 14.5 0.0 0.00 0.00 0.00 63 1020.6
20260506143027 0 173 16.1 0.0 0.00 0.00 0.00 63 1020.6
20260506142541 0 150 17.7 0.0 0.00 0.00 0.00 62 1020.6
20260506142059 0 175 17.7 0.0 0.00 0.00 0.00 62 1020.6
20260506141515 0 164 16.1 0.0 0.00 0.00 0.00 63 1020.6
20260506141034 0 144 14.5 0.0 0.00 0.00 0.00 64 1020.6
20260506140552 0 144 14.5 0.0 0.00 0.00 0.00 67 1020.7
20260506140105 0 155 14.5 0.0 0.00 0.00 0.00 68 1020.7
20260506135516 0 154 14.5 0.0 0.00 0.00 0.00 68 1020.5
20260506135032 0 147 14.5 0.0 0.00 0.00 0.00 69 1020.5
20260506134554 0 169 14.5 0.0 0.00 0.00 0.00 76 1020.5
20260506134106 -1 154 14.5 0.0 0.00 0.00 0.00 75 1020.5
20260506133515 -2 178 12.9 0.0 0.00 0.00 0.00 75 1020.3
20260506133030 -2 171 11.3 0.0 0.00 0.00 0.00 76 1020.3
20260506132545 -2 170 9.7 0.0 0.00 0.00 0.00 78 1020.3
20260506132100 -2 188 9.7 0.0 0.00 0.00 0.00 79 1020.3
20260506131513 -3 200 9.7 0.0 0.00 0.00 0.00 80 1020.3
20260506131030 -3 194 11.3 0.0 0.00 0.00 0.00 81 1020.0
20260506130549 -3 195 11.3 0.0 0.00 0.00 0.00 82 1020.0
20260506130003 -5 212 9.7 0.0 0.00 0.00 0.00 83 1020.2
20260506125518 -5 209 9.7 0.0 0.00 0.00 0.00 83 1020.1
20260506125037 -6 198 9.7 0.0 0.00 0.00 0.00 83 1019.9
20260506124553 -6 200 9.7 0.0 0.00 0.00 0.00 83 1019.9
20260506124010 -6 198 9.7 0.0 0.00 0.00 0.00 83 1020.0
20260506123530 -6 195 8.0 0.0 0.00 0.00 0.00 82 1019.9
20260506123048 -6 194 8.0 0.0 0.00 0.00 0.00 82 1020.1
20260506122504 -6 184 8.0 0.0 0.00 0.00 0.00 82 1019.9
20260506122021 -6 180 8.0 0.0 0.00 0.00 0.00 83 1019.9
20260506121539 -6 181 9.7 0.0 0.00 0.00 0.00 83 1019.9
20260506121059 -6 182 9.7 0.0 0.00 0.00 0.00 83 1019.7
20260506120511 -6 190 9.7 0.0 0.00 0.00 0.00 83 1019.8
20260506120033 -6 193 8.0 0.0 0.00 0.00 0.00 83 1019.8
20260506115553 -6 196 8.0 0.0 0.00 0.00 0.00 82 1019.8
20260506115008 -6 192 8.0 0.0 0.00 0.00 0.00 83 1019.7
20260506114531 -7 196 8.0 0.0 0.00 0.00 0.00 83 1019.8
20260506114053 -7 189 6.4 0.0 0.00 0.00 0.00 82 1019.7
20260506113507 -7 189 6.4 0.0 0.00 0.00 0.00 83 1019.9
20260506113025 -7 189 8.0 0.0 0.00 0.00 0.00 83 1019.8
20260506112548 -6 189 9.7 0.0 0.00 0.00 0.00 84 1019.8
20260506112006 -7 190 9.7 0.0 0.00 0.00 0.00 83 1019.8
20260506111524 -7 198 9.7 0.0 0.00 0.00 0.00 83 1019.7
20260506111046 -7 203 9.7 0.0 0.00 0.00 0.00 83 1019.7
20260506110503 -7 191 8.0 0.0 0.00 0.00 0.00 83 1019.8
20260506110021 -7 184 8.0 0.0 0.00 0.00 0.00 81 1019.8